Weather History for Pope Field Airport, NC

Change the Weather History Date:

Friday, February 15, 2013

  Actual Average Record
Temperature  
Mean Temperature 46 °F -  
Max Temperature 63 °F 61 °F 83 °F (1989)
Min Temperature 29 °F 38 °F 20 °F (1986)
Degree Days  
Heating Degree Days 19    
Moisture  
Dew Point 33 °F    
Average Humidity 70    
Maximum Humidity 95    
Minimum Humidity 29    
Precipitation  
Precipitation 0.00 in - - ()
Sea Level Pressure  
Sea Level Pressure 30.03 in    
Wind  
Wind Speed 1 mph (SW)    
Max Wind Speed 8 mph    
Max Gust Speed -    
Visibility 10 miles    
Events      
Averages and records for this station are not official NWS values.
T = Trace of Precipitation, MM = Missing Value Source: NWS Daily Summary

Daily Weather History Graph

Daily Weather History Graph

Search for Another Location

Airport:

Trip Planner

Search our weather history database for the weather conditions in past years. The results will help you decide how hot, cold, wet, or windy it might be!

Date:

Astronomy

Feb. 15, 2013 Rise Set
Actual Time 7:01 AM EST 5:58 PM EST
Civil Twilight 6:36 AM EST 6:24 PM EST
Nautical Twilight 6:06 AM EST 6:54 PM EST
Astronomical Twilight 5:36 AM EST 7:24 PM EST
Moon 9:51 AM EST (2/15) 11:42 PM EST (2/15)
Length of Visible Light 11h 48m
Length of Day
10h 56m
Waxing Crescent, 30% of the Moon is Illuminated
Feb 15
Waxing Crescent
Feb 17
First Quarter
Feb 25
Full
Mar 4
Last Quarter
Mar 11
New

Hourly Weather History & Observations

Time (EST) Temp. Windchill Dew Point Humidity Pressure Visibility Wind Dir Wind Speed Gust Speed Precip Events Conditions
12:55 AM 32.5 °F - 30.9 °F 94% 30.09 in 10.0 mi Calm Calm - N/A   Clear
1:55 AM 31.5 °F - 30.2 °F 95% 30.07 in 10.0 mi Calm Calm - N/A   Clear
2:55 AM 30.6 °F - 29.3 °F 95% 30.07 in 10.0 mi Calm Calm - N/A   Clear
3:55 AM 31.5 °F - 29.7 °F 93% 30.07 in 10.0 mi Calm Calm - N/A   Clear
4:55 AM 30.0 °F - 28.8 °F 95% 30.07 in 10.0 mi Calm Calm - N/A   Clear
5:55 AM 29.5 °F - 28.2 °F 95% 30.08 in 10.0 mi Calm Calm - N/A   Clear
6:55 AM 29.5 °F - 28.0 °F 94% 30.09 in 10.0 mi Calm Calm - N/A   Clear
7:55 AM 32.2 °F - 30.2 °F 92% 30.10 in 10.0 mi Calm Calm - N/A   Clear
8:55 AM 38.7 °F 36.3 °F 35.4 °F 88% 30.11 in 10.0 mi WSW 3.5 mph - N/A   Clear
9:55 AM 46.2 °F - 37.8 °F 72% 30.11 in 10.0 mi Calm Calm - N/A   Clear
10:55 AM 51.6 °F - 38.7 °F 61% 30.10 in 10.0 mi Calm Calm - N/A   Clear
11:55 AM 57.4 °F - 36.5 °F 46% 30.07 in 10.0 mi Calm Calm - N/A   Clear
12:55 PM 58.8 °F - 31.1 °F 35% 30.04 in 10.0 mi Calm Calm - N/A   Clear
1:55 PM 60.6 °F - 31.8 °F 34% 30.01 in 10.0 mi Variable 3.5 mph - N/A   Clear
2:55 PM 63.1 °F - 31.6 °F 31% 29.98 in 10.0 mi Variable 3.5 mph - N/A   Clear
3:55 PM 62.4 °F - 31.6 °F 31% 29.96 in 10.0 mi Variable 3.5 mph - N/A   Clear
4:55 PM 62.6 °F - 29.8 °F 29% 29.95 in 10.0 mi West 8.1 mph - N/A   Clear
5:55 PM 57.0 °F - 34.9 °F 43% 29.95 in 10.0 mi SW 5.8 mph - N/A   Clear
6:55 PM 50.5 °F - 35.8 °F 57% 29.96 in 10.0 mi SW 5.8 mph - N/A   Clear
7:55 PM 46.6 °F - 36.7 °F 68% 29.97 in 10.0 mi Calm Calm - N/A   Clear
8:55 PM 43.2 °F - 37.0 °F 79% 29.97 in 10.0 mi Calm Calm - N/A   Clear
9:55 PM 39.9 °F - 36.3 °F 87% 29.96 in 10.0 mi Calm Calm - N/A   Clear
10:55 PM 39.2 °F 35.9 °F 35.4 °F 86% 29.96 in 10.0 mi SSW 4.6 mph - N/A   Clear
11:55 PM 46.2 °F 43.3 °F 37.6 °F 72% 29.94 in 10.0 mi SW 5.8 mph - N/A   Clear